Location: Arbon
(43.0005°N, 0.7472°E)
Time: 10:19:50
(UTC+00:00)

SR - Pass Details

Date: 01 December 2020
Orbit: 575 x 880 km, 66.7° (Epoch: 21 January)

Event Time Altitude Azimuth Distance (km) Brightness Sun altitude
Rises 01:38:08 0° 335° (NNW) 3,174 - -58.5°
Reaches altitude 10° 01:40:39 10° 345° (NNW) 2,298 - -58.2°
Maximum altitude 01:45:27 33° 50° (NE) 1,315 - -57.4°
Drops below altitude 10° 01:50:33 10° 114° (ESE) 2,453 - -56.6°
Sets 01:53:19 0° 123° (ESE) 3,417 - -56.2°
